SCP
0 0 0 0 0 0 0 0 0 0 0 0 0 0 0 0 0 0 0 0 0 0 0 0 0 0 0 0 0 0 0 0 0 0 0 0 0 0 0 0 0 0 0
0 0 0 0 0 0 0 0 0 0 0 0 0 0 0 0 0 0 0 0 0 0 0 0 0 0 0 0 0 0 0 0 0 0 0 0 0 0 0 0 0 0 -0
0 0 0 0 0 0 0 0 0 0 0 0 0 0 0 0 0 0 0 0 0 0 0 0 0 0 0 0 0 0 0 0 0 0 0 0 0 0 0 0 0 -0 0
0 0 0 0 0 0 0 0 0 0 0 0 0 0 0 0 0 0 0 0 0 0 0 0 0 0 0 0 0 0 0 0 0 0 0 0 0 0 0 0 0 0 -0
0 0 0 0 0 0 0 0 0 0 0 0 0 0 0 0 0 0 0 0 0 0 0 0 0 0 0 0 0 0 0 0 0 0 0 0 0 0 0 0 0 0 -0
0 0 0 0 0 0 0 0 0 0 0 0 0 0 0 0 0 0 0 0 0 0 0 0 0 0 0 0 0 0 0 0 0 0 0 0 0 0 0 0 0 0 -0
0 0 0 0 0 0 0 0 0 0 0 0 0 0 0 0 0 0 0 0 0 0 0 0 0 0 0 0 0 0 0 0 0 0 0 0 0 0 0 0 0 0 -0
0 0 0 0 0 0 0 0 0 0 0 0 0 0 0 0 0 0 0 0 0 0 0 0 0 0 0 0 0 0 0 0 0 0 0 0 0 0 0 0 0 0 -0
1 1 0 0 0 0 0 0 0 0 0 0 0 0 0 0 0 0 0 0 0 0 0 0 0 0 0 0 0 -0 0 0 0 0 0 0 0 0 0 0 0 0 0
1 1 0 0 1 0 0 0 0 0 0 0 0 0 0 0 0 0 0 0 0 0 0 0 0 0 0 0 0 -0 0 0 0 0 0 0 0 0 0 0 0 -0 -0
2 1 1 1 1 1 0 0 0 0 0 0 0 0 0 0 0 0 0 0 0 0 0 0 0 0 0 0 -0 0 0 0 0 0 0 0 0 0 0 0 0 0 0
2 2 1 1 1 1 1 1 0 0 0 0 0 0 0 0 0 0 0 0 0 0 0 0 0 0 0 0 0 0 0 0 0 0 0 0 0 0 0 0 0 0 0
2 2 1 1 1 1 1 1 1 0 0 0 0 0 0 0 0 0 0 0 0 0 0 0 0 0 0 0 0 0 0 0 0 0 0 0 0 0 0 0 0 0 -0
2 2 1 1 1 1 1 1 0 0 0 0 0 0 0 0 0 0 0 0 0 0 0 0 0 0 0 0 0 0 0 0 0 0 0 0 0 0 0 0 0 0 -0
2 2 2 2 1 2 1 1 0 0 0 0 0 0 0 0 0 0 0 0 0 0 0 0 0 0 0 0 0 0 0 0 0 0 0 0 0 0 0 0 0 0 -0
2 2 2 2 1 1 1 0 0 0 0 0 0 0 0 0 0 0 0 0 0 0 0 0 0 0 0 0 0 0 0 0 0 0 0 0 0 0 0 0 0 0 -0
2 2 2 1 1 1 0 0 0 0 0 0 0 0 0 0 0 0 0 0 0 0 0 0 0 0 0 0 0 0 0 0 0 0 0 0 0 0 0 0 0 0 0
2 2 2 1 1 0 0 0 0 0 0 0 0 0 0 0 0 0 0 0 0 0 0 0 0 0 0 0 0 0 0 0 0 0 0 0 0 0 0 0 0 0 0
2 2 1 1 1 0 0 0 0 0 0 0 0 0 0 0 0 0 0 0 0 0 0 0 0 0 0 0 0 0 0 0 0 0 0 0 0 0 0 0 0 0 0
2 2 2 1 1 0 0 0 0 0 0 0 0 0 0 0 0 0 0 0 0 0 0 0 0 0 0 0 0 0 0 0 0 0 0 0 0 0 -0 0 0 0 0
2 2 1 1 0 0 0 0 0 0 0 0 0 0 0 0 0 0 0 0 0 0 0 0 0 0 0 0 0 0 0 0 0 0 0 0 0 0 0 0 0 0 0
2 1 1 0 0 0 0 0 0 0 0 0 0 0 0 0 0 0 0 0 0 -0 0 0 0 0 0 0 0 0 0 0 0 0 0 0 0 0 0 0 0 0 0
1 1 0 0 0 0 0 0 0 0 0 0 0 0 0 0 0 0 0 0 0 -0 0 0 0 0 0 0 0 0 0 0 0 0 0 0 0 0 0 0 0 0 0
1 0 0 0 0 0 0 0 0 0 0 0 0 0 0 0 0 0 0 0 0 -0 -0 0 0 0 0 0 0 0 0 0 0 0 0 0 0 0 0 0 0 0 0
0 0 0 0 0 0 0 0 0 0 0 0 0 0 0 0 0 0 0 0 0 0 0 0 0 0 0 0 0 0 0 0 0 0 0 0 0 0 0 0 0 0 0
0 0 0 0 0 0 0 0 0 0 0 0 0 0 0 0 0 0 0 0 0 0 0 0 0 0 0 0 0 0 0 0 0 0 0 0 0 0 0 0 0 0 0
Wind_Speed_500mb
47 45 41 36 31 29 28 31 34 36 36 34 33 26 27 28 27 22 26 27 28 31 33 28 28 28 28 28 21 17 24 27 30 29 31 34 37 31 32 24 30 42 42
50 46 43 35 30 27 26 25 29 29 29 29 26 22 20 22 20 22 24 31 29 37 37 35 34 30 29 26 22 18 24 29 31 30 29 32 35 34 34 29 24 22 27
57 46 45 36 30 28 27 28 29 29 28 28 26 24 19 20 21 24 27 32 33 32 36 37 37 32 28 25 23 20 25 30 29 29 29 26 30 34 39 33 23 24 25
62 52 48 35 27 30 30 31 30 30 27 28 26 27 26 24 25 29 32 33 30 33 34 35 34 31 30 24 22 21 26 32 30 29 30 27 29 33 37 36 22 27 25
53 61 52 33 27 32 33 33 32 32 27 30 27 23 24 29 30 29 33 31 31 33 27 23 27 28 31 25 23 22 26 32 32 28 26 27 26 28 37 40 30 24 29
59 61 51 38 30 33 35 35 35 33 28 26 27 28 31 33 31 34 34 34 35 33 27 26 24 25 28 25 25 23 21 31 33 31 25 23 24 21 30 34 26 25 27
64 60 53 43 34 36 31 32 35 34 30 28 29 28 31 29 29 29 34 37 38 35 31 29 27 25 29 31 28 21 22 31 31 29 26 21 22 21 27 27 25 22 19
60 60 48 46 38 35 32 32 35 36 33 30 31 25 24 24 28 32 36 34 26 28 28 29 28 25 28 32 29 23 22 30 30 28 24 23 17 19 25 25 27 17 7
65 54 50 47 39 36 32 31 31 36 33 30 31 25 10 10 12 16 18 19 24 24 24 26 25 26 25 25 29 29 22 29 29 24 24 20 18 18 26 28 24 15 19
62 55 52 48 41 36 32 28 30 33 32 36 36 36 34 32 25 16 16 16 22 22 20 20 22 21 22 21 27 28 23 26 29 26 21 20 18 21 23 28 21 22 21
59 54 54 49 41 38 32 31 33 32 36 36 37 32 34 35 36 35 29 19 16 22 17 19 19 18 17 22 28 28 23 21 26 27 22 21 20 22 24 26 23 18 12
58 54 55 45 42 39 34 33 31 32 31 34 33 30 33 34 32 29 25 22 18 19 15 17 17 14 17 23 31 24 28 23 25 26 26 25 23 23 22 28 29 26 16
59 52 53 44 44 38 34 34 34 35 36 36 31 29 29 31 28 25 21 18 16 18 17 13 16 18 18 22 28 22 33 28 25 26 28 23 22 26 25 31 28 30 20
56 54 46 42 38 38 35 35 34 36 36 33 29 25 28 27 25 23 22 19 16 18 21 18 13 12 15 22 33 20 21 25 26 29 27 25 27 25 25 31 29 34 30
55 54 44 39 40 38 35 34 36 37 36 31 30 26 28 27 25 23 22 20 20 13 15 9 8 7 15 20 27 22 23 21 26 28 25 28 28 27 27 30 31 28 32
60 52 44 40 42 39 36 38 41 36 32 32 30 28 29 26 24 22 21 20 20 20 16 8 6 6 15 21 26 23 23 25 27 27 27 27 31 30 32 29 27 33 36
60 47 44 44 47 45 39 39 39 38 34 29 28 29 27 24 22 22 20 21 21 20 20 17 14 10 16 20 26 23 25 25 26 28 27 29 33 32 36 26 23 30 34
54 49 46 48 52 47 42 39 39 38 32 29 26 28 25 22 21 20 19 21 21 20 18 15 15 15 23 25 22 27 22 23 26 27 27 29 31 34 36 27 26 30 28
52 53 51 55 55 47 42 41 36 32 27 26 24 24 22 20 19 18 17 21 22 24 20 14 15 19 26 25 29 32 25 22 27 27 31 33 35 41 36 25 31 29 26
57 59 56 59 53 50 45 42 36 28 28 27 25 22 19 16 14 17 19 19 22 28 25 16 16 21 29 29 28 34 30 24 26 28 33 37 42 39 34 35 34 28 23
62 60 58 60 53 52 50 43 33 27 26 33 30 22 17 14 14 16 19 20 21 27 29 21 19 22 29 31 34 32 34 30 27 30 36 43 42 36 35 37 31 29 25
63 59 62 59 57 56 46 32 34 24 28 31 29 24 20 16 15 15 18 22 20 27 26 25 22 23 30 36 37 37 39 38 34 35 44 46 39 36 31 32 34 32 28
58 61 64 60 56 51 39 33 30 25 27 24 24 22 18 16 15 18 21 19 25 27 23 23 21 22 27 31 33 36 38 42 44 45 42 45 40 34 32 36 36 32 30
62 65 63 60 54 48 40 34 31 30 26 21 19 18 16 13 13 19 24 22 23 26 24 22 18 12 15 20 28 31 34 39 37 46 44 49 42 39 37 38 34 32 29
68 65 63 58 52 48 39 33 30 31 29 23 20 19 16 11 10 20 25 22 18 23 23 23 23 22 17 20 34 35 38 38 42 45 50 44 46 46 43 39 35 31 31
69 64 62 53 47 39 34 33 34 33 31 26 23 22 17 14 13 17 20 17 15 19 22 26 25 22 20 22 32 36 29 41 43 40 46 45 55 46 36 42 38 38 34
Wind_Direction_500mb
258 262 264 265 269 270 272 274 276 274 271 269 268 268 270 257 249 245 237 264 271 282 284 283 287 284 273 278 277 261 239 234 232 229 223 221 226 234 225 231 248 241 231
259 262 264 262 265 266 269 269 274 269 261 255 251 260 273 243 233 228 249 266 269 281 280 286 289 281 283 273 276 265 233 232 229 225 222 227 228 227 219 232 234 235 213
262 263 261 260 266 263 265 265 266 269 258 244 236 248 261 242 231 245 265 277 277 282 282 284 288 277 279 281 275 268 232 229 229 225 224 228 226 228 222 230 238 227 212
265 264 259 257 263 264 265 264 263 269 259 239 239 243 252 247 236 253 268 273 286 289 288 282 275 267 273 277 273 264 235 227 230 229 228 227 229 227 220 220 252 234 227
255 261 262 259 258 268 268 266 265 264 261 243 235 237 250 252 246 266 274 275 289 296 284 272 274 260 264 267 266 267 240 225 230 229 228 229 232 235 228 233 245 243 246
250 255 262 266 265 273 269 266 264 258 261 245 242 244 258 255 253 262 269 282 290 295 288 284 277 265 253 257 263 271 238 222 226 230 228 230 229 234 223 226 237 242 253
246 252 259 263 269 276 274 267 260 251 254 246 243 256 268 257 265 271 276 287 290 286 278 279 276 259 251 256 258 261 227 221 222 226 224 226 228 230 224 224 225 243 250
247 249 259 267 274 271 263 259 252 247 246 242 244 257 266 271 269 276 278 286 287 278 272 271 269 265 258 252 243 239 232 220 223 220 220 227 228 224 204 208 211 211 294
249 252 258 265 270 261 258 253 249 245 248 249 242 231 238 244 265 275 269 289 292 282 277 269 267 266 258 250 234 223 231 219 220 215 216 219 221 214 210 212 212 207 240
248 251 258 266 263 250 250 248 244 241 245 239 237 236 246 258 267 273 279 286 296 290 279 273 274 266 257 231 219 214 227 221 219 214 212 212 215 205 213 205 207 229 272
247 251 256 260 248 244 242 240 236 231 241 237 239 241 246 252 257 261 280 285 291 298 284 273 272 262 253 215 207 216 218 214 218 219 209 216 215 205 211 196 200 194 189
244 249 256 251 242 239 239 237 231 235 226 232 240 238 245 253 261 263 263 282 285 292 292 279 269 266 249 219 208 214 217 226 218 215 202 215 212 206 204 204 212 202 223
240 251 254 247 237 236 233 231 227 218 218 230 232 235 242 251 256 257 261 257 271 289 297 286 279 260 247 221 198 218 218 222 221 211 200 210 206 203 199 192 196 208 192
242 254 253 241 231 227 228 230 213 206 216 221 221 230 243 247 254 258 257 250 257 276 292 286 279 251 232 217 201 206 212 218 218 204 197 202 201 196 184 191 202 194 184
238 248 243 234 221 222 227 220 200 211 211 215 226 235 240 249 250 250 247 248 252 266 302 274 240 236 214 205 202 210 207 197 190 188 195 196 192 186 186 182 185 195 190
234 235 233 223 219 218 221 209 205 204 197 211 226 233 243 243 242 237 238 238 247 255 246 264 277 236 207 199 199 199 185 188 188 195 197 190 183 175 171 188 195 198 194
233 229 230 222 216 215 205 199 204 201 201 217 227 237 235 234 229 234 229 237 244 243 247 255 254 223 191 185 186 183 174 188 191 189 190 183 181 174 178 185 197 189 182
229 232 224 219 218 208 197 205 204 199 205 221 230 229 222 222 222 222 235 239 240 237 242 241 233 208 188 183 185 181 178 177 178 181 180 177 178 181 181 187 195 183 174
227 224 220 216 214 201 190 205 203 201 212 219 219 216 214 215 223 230 246 244 235 227 226 227 217 195 185 188 186 182 178 177 173 172 169 169 170 171 173 191 194 176 178
226 216 216 212 208 196 195 202 197 203 206 206 199 191 203 214 228 236 246 239 230 219 215 216 215 194 189 187 189 176 173 173 170 167 164 163 159 164 168 186 183 184 181
214 209 206 201 200 191 192 196 196 190 204 195 194 198 209 224 228 234 232 228 222 208 212 213 214 199 191 188 187 184 183 174 164 167 163 160 164 163 171 181 185 187 192
203 203 201 193 187 187 187 189 186 194 195 198 205 212 221 233 228 238 223 213 213 211 212 218 215 214 200 194 191 194 195 172 158 167 171 163 167 166 175 182 185 193 198
200 198 189 187 188 177 177 176 193 202 188 193 196 213 227 225 241 226 207 205 202 200 215 236 242 230 216 202 194 189 193 191 184 169 173 167 175 180 183 189 193 201 203
191 184 185 178 176 176 178 184 189 195 198 194 204 221 222 231 233 209 201 201 203 204 214 223 211 221 236 222 202 195 190 189 181 174 180 181 179 190 194 197 202 208 214
181 181 173 169 174 175 180 191 189 195 201 204 210 218 214 214 203 196 198 206 210 221 210 206 195 191 200 211 209 193 193 190 176 182 188 197 190 192 195 199 209 217 214
170 166 168 173 174 180 188 184 192 200 203 204 212 203 198 197 190 179 185 198 205 212 196 191 196 203 200 185 198 207 204 192 189 186 196 194 192 189 202 212 216 222 227
Wind_Speed_850mb
47 45 41 36 31 29 28 31 34 36 36 34 33 26 27 28 27 22 26 27 28 31 33 28 28 28 28 28 21 17 24 27 30 29 31 34 37 31 32 24 30 42 42
50 46 43 35 30 27 26 25 29 29 29 29 26 22 20 22 20 22 24 31 29 37 37 35 34 30 29 26 22 18 24 29 31 30 29 32 35 34 34 29 24 22 27
57 46 45 36 30 28 27 28 29 29 28 28 26 24 19 20 21 24 27 32 33 32 36 37 37 32 28 25 23 20 25 30 29 29 29 26 30 34 39 33 23 24 25
62 52 48 35 27 30 30 31 30 30 27 28 26 27 26 24 25 29 32 33 30 33 34 35 34 31 30 24 22 21 26 32 30 29 30 27 29 33 37 36 22 27 25
53 61 52 33 27 32 33 33 32 32 27 30 27 23 24 29 30 29 33 31 31 33 27 23 27 28 31 25 23 22 26 32 32 28 26 27 26 28 37 40 30 24 29
59 61 51 38 30 33 35 35 35 33 28 26 27 28 31 33 31 34 34 34 35 33 27 26 24 25 28 25 25 23 21 31 33 31 25 23 24 21 30 34 26 25 27
64 60 53 43 34 36 31 32 35 34 30 28 29 28 31 29 29 29 34 37 38 35 31 29 27 25 29 31 28 21 22 31 31 29 26 21 22 21 27 27 25 22 19
60 60 48 46 38 35 32 32 35 36 33 30 31 25 24 24 28 32 36 34 26 28 28 29 28 25 28 32 29 23 22 30 30 28 24 23 17 19 25 25 27 17 7
65 54 50 47 39 36 32 31 31 36 33 30 31 25 10 10 12 16 18 19 24 24 24 26 25 26 25 25 29 29 22 29 29 24 24 20 18 18 26 28 24 15 19
62 55 52 48 41 36 32 28 30 33 32 36 36 36 34 32 25 16 16 16 22 22 20 20 22 21 22 21 27 28 23 26 29 26 21 20 18 21 23 28 21 22 21
59 54 54 49 41 38 32 31 33 32 36 36 37 32 34 35 36 35 29 19 16 22 17 19 19 18 17 22 28 28 23 21 26 27 22 21 20 22 24 26 23 18 12
58 54 55 45 42 39 34 33 31 32 31 34 33 30 33 34 32 29 25 22 18 19 15 17 17 14 17 23 31 24 28 23 25 26 26 25 23 23 22 28 29 26 16
59 52 53 44 44 38 34 34 34 35 36 36 31 29 29 31 28 25 21 18 16 18 17 13 16 18 18 22 28 22 33 28 25 26 28 23 22 26 25 31 28 30 20
56 54 46 42 38 38 35 35 34 36 36 33 29 25 28 27 25 23 22 19 16 18 21 18 13 12 15 22 33 20 21 25 26 29 27 25 27 25 25 31 29 34 30
55 54 44 39 40 38 35 34 36 37 36 31 30 26 28 27 25 23 22 20 20 13 15 9 8 7 15 20 27 22 23 21 26 28 25 28 28 27 27 30 31 28 32
60 52 44 40 42 39 36 38 41 36 32 32 30 28 29 26 24 22 21 20 20 20 16 8 6 6 15 21 26 23 23 25 27 27 27 27 31 30 32 29 27 33 36
60 47 44 44 47 45 39 39 39 38 34 29 28 29 27 24 22 22 20 21 21 20 20 17 14 10 16 20 26 23 25 25 26 28 27 29 33 32 36 26 23 30 34
54 49 46 48 52 47 42 39 39 38 32 29 26 28 25 22 21 20 19 21 21 20 18 15 15 15 23 25 22 27 22 23 26 27 27 29 31 34 36 27 26 30 28
52 53 51 55 55 47 42 41 36 32 27 26 24 24 22 20 19 18 17 21 22 24 20 14 15 19 26 25 29 32 25 22 27 27 31 33 35 41 36 25 31 29 26
57 59 56 59 53 50 45 42 36 28 28 27 25 22 19 16 14 17 19 19 22 28 25 16 16 21 29 29 28 34 30 24 26 28 33 37 42 39 34 35 34 28 23
62 60 58 60 53 52 50 43 33 27 26 33 30 22 17 14 14 16 19 20 21 27 29 21 19 22 29 31 34 32 34 30 27 30 36 43 42 36 35 37 31 29 25
63 59 62 59 57 56 46 32 34 24 28 31 29 24 20 16 15 15 18 22 20 27 26 25 22 23 30 36 37 37 39 38 34 35 44 46 39 36 31 32 34 32 28
58 61 64 60 56 51 39 33 30 25 27 24 24 22 18 16 15 18 21 19 25 27 23 23 21 22 27 31 33 36 38 42 44 45 42 45 40 34 32 36 36 32 30
62 65 63 60 54 48 40 34 31 30 26 21 19 18 16 13 13 19 24 22 23 26 24 22 18 12 15 20 28 31 34 39 37 46 44 49 42 39 37 38 34 32 29
68 65 63 58 52 48 39 33 30 31 29 23 20 19 16 11 10 20 25 22 18 23 23 23 23 22 17 20 34 35 38 38 42 45 50 44 46 46 43 39 35 31 31
69 64 62 53 47 39 34 33 34 33 31 26 23 22 17 14 13 17 20 17 15 19 22 26 25 22 20 22 32 36 29 41 43 40 46 45 55 46 36 42 38 38 34
Wind_Direction_850mb
258 262 264 265 269 270 272 274 276 274 271 269 268 268 270 257 249 245 237 264 271 282 284 283 287 284 273 278 277 261 239 234 232 229 223 221 226 234 225 231 248 241 231
259 262 264 262 265 266 269 269 274 269 261 255 251 260 273 243 233 228 249 266 269 281 280 286 289 281 283 273 276 265 233 232 229 225 222 227 228 227 219 232 234 235 213
262 263 261 260 266 263 265 265 266 269 258 244 236 248 261 242 231 245 265 277 277 282 282 284 288 277 279 281 275 268 232 229 229 225 224 228 226 228 222 230 238 227 212
265 264 259 257 263 264 265 264 263 269 259 239 239 243 252 247 236 253 268 273 286 289 288 282 275 267 273 277 273 264 235 227 230 229 228 227 229 227 220 220 252 234 227
255 261 262 259 258 268 268 266 265 264 261 243 235 237 250 252 246 266 274 275 289 296 284 272 274 260 264 267 266 267 240 225 230 229 228 229 232 235 228 233 245 243 246
250 255 262 266 265 273 269 266 264 258 261 245 242 244 258 255 253 262 269 282 290 295 288 284 277 265 253 257 263 271 238 222 226 230 228 230 229 234 223 226 237 242 253
246 252 259 263 269 276 274 267 260 251 254 246 243 256 268 257 265 271 276 287 290 286 278 279 276 259 251 256 258 261 227 221 222 226 224 226 228 230 224 224 225 243 250
247 249 259 267 274 271 263 259 252 247 246 242 244 257 266 271 269 276 278 286 287 278 272 271 269 265 258 252 243 239 232 220 223 220 220 227 228 224 204 208 211 211 294
249 252 258 265 270 261 258 253 249 245 248 249 242 231 238 244 265 275 269 289 292 282 277 269 267 266 258 250 234 223 231 219 220 215 216 219 221 214 210 212 212 207 240
248 251 258 266 263 250 250 248 244 241 245 239 237 236 246 258 267 273 279 286 296 290 279 273 274 266 257 231 219 214 227 221 219 214 212 212 215 205 213 205 207 229 272
247 251 256 260 248 244 242 240 236 231 241 237 239 241 246 252 257 261 280 285 291 298 284 273 272 262 253 215 207 216 218 214 218 219 209 216 215 205 211 196 200 194 189
244 249 256 251 242 239 239 237 231 235 226 232 240 238 245 253 261 263 263 282 285 292 292 279 269 266 249 219 208 214 217 226 218 215 202 215 212 206 204 204 212 202 223
240 251 254 247 237 236 233 231 227 218 218 230 232 235 242 251 256 257 261 257 271 289 297 286 279 260 247 221 198 218 218 222 221 211 200 210 206 203 199 192 196 208 192
242 254 253 241 231 227 228 230 213 206 216 221 221 230 243 247 254 258 257 250 257 276 292 286 279 251 232 217 201 206 212 218 218 204 197 202 201 196 184 191 202 194 184
238 248 243 234 221 222 227 220 200 211 211 215 226 235 240 249 250 250 247 248 252 266 302 274 240 236 214 205 202 210 207 197 190 188 195 196 192 186 186 182 185 195 190
234 235 233 223 219 218 221 209 205 204 197 211 226 233 243 243 242 237 238 238 247 255 246 264 277 236 207 199 199 199 185 188 188 195 197 190 183 175 171 188 195 198 194
233 229 230 222 216 215 205 199 204 201 201 217 227 237 235 234 229 234 229 237 244 243 247 255 254 223 191 185 186 183 174 188 191 189 190 183 181 174 178 185 197 189 182
229 232 224 219 218 208 197 205 204 199 205 221 230 229 222 222 222 222 235 239 240 237 242 241 233 208 188 183 185 181 178 177 178 181 180 177 178 181 181 187 195 183 174
227 224 220 216 214 201 190 205 203 201 212 219 219 216 214 215 223 230 246 244 235 227 226 227 217 195 185 188 186 182 178 177 173 172 169 169 170 171 173 191 194 176 178
226 216 216 212 208 196 195 202 197 203 206 206 199 191 203 214 228 236 246 239 230 219 215 216 215 194 189 187 189 176 173 173 170 167 164 163 159 164 168 186 183 184 181
214 209 206 201 200 191 192 196 196 190 204 195 194 198 209 224 228 234 232 228 222 208 212 213 214 199 191 188 187 184 183 174 164 167 163 160 164 163 171 181 185 187 192
203 203 201 193 187 187 187 189 186 194 195 198 205 212 221 233 228 238 223 213 213 211 212 218 215 214 200 194 191 194 195 172 158 167 171 163 167 166 175 182 185 193 198
200 198 189 187 188 177 177 176 193 202 188 193 196 213 227 225 241 226 207 205 202 200 215 236 242 230 216 202 194 189 193 191 184 169 173 167 175 180 183 189 193 201 203
191 184 185 178 176 176 178 184 189 195 198 194 204 221 222 231 233 209 201 201 203 204 214 223 211 221 236 222 202 195 190 189 181 174 180 181 179 190 194 197 202 208 214
181 181 173 169 174 175 180 191 189 195 201 204 210 218 214 214 203 196 198 206 210 221 210 206 195 191 200 211 209 193 193 190 176 182 188 197 190 192 195 199 209 217 214
170 166 168 173 174 180 188 184 192 200 203 204 212 203 198 197 190 179 185 198 205 212 196 191 196 203 200 185 198 207 204 192 189 186 196 194 192 189 202 212 216 222 227